[[{"header":{"parameterUnit":"m.s-1","parameterCategory":1,"la1":30.2991,"la2":30.254,"lo1":-89.0895,"lo2":-89.0444,"dy":0.0017,"dx":0.0017,"nx":28,"ny":28,"refTime":"2025-03-26T09:00:00:Z","depth":0,"parameterNumber":2,"parameterNumberName":"U-component_of_WINDS"},"data":[0,0,0,0,0,0,0,0,0,0,0,0,0,0,0,0,0,0,0,0,0,0,0,0,0,0,0,0,0,0,0,0,0,0,0,0,0,0,0,0,0,0,0,0,0,0,0,0,0,0,0,0,0,0,0,0,0,0,1.1657,1.1657,0,1.1709,1.171,1.171,1.1682,1.1681,1.1679,1.1678,1.1736,1.1739,1.1742,0,0,0,0,0,0,0,0,0,0,0,0,0,1.1537,1.1539,1.1657,1.1657,1.1658,1.1709,1.171,1.171,1.1682,1.1681,1.1679,1.1677,1.1735,1.1739,1.1742,0,0,0,0,0,0,0,0,0,0,0,0,0,1.1589,1.154,1.1657,1.165,1.165,1.1709,1.171,1.1711,1.1683,1.1681,1.1678,1.1676,1.1734,1.1739,1.1743,1.1813,0,0,1.1756,1.1758,0,0,0,0,0,0,0,0,1.1586,1.1594,1.165,1.1651,1.1651,1.1687,1.1689,1.1745,1.1683,1.167,1.1678,1.1675,1.1722,1.1727,1.1742,1.1815,1.1818,1.1757,1.1759,1.1761,1.1762,0,0,0,0,0,0,0,1.1583,1.1591,1.1678,1.1651,1.1651,1.1646,1.1651,1.1699,1.1708,1.1671,1.1669,1.1676,1.1722,1.1738,1.1743,1.1819,1.1756,1.176,1.1763,1.1765,1.1953,1.1955,0,0,0,0,0,0,1.1579,1.1589,1.1676,1.1679,1.1612,1.165,1.1655,1.1677,1.1707,1.171,1.1678,1.1674,1.1731,1.1738,1.1745,1.1828,1.1761,1.1765,1.1768,1.195,1.1953,1.1956,0,0,0,0,0,0,1.1576,1.1587,1.1674,1.1633,1.1644,1.1654,1.1679,1.168,1.1696,1.1712,1.1714,1.1692,1.173,1.1739,1.1796,1.183,1.1767,1.1771,1.1947,1.1951,1.1954,1.1996,0,0,0,0,0,0,1.1573,1.1586,1.1612,1.1634,1.1646,1.1722,1.1681,1.1682,1.1703,1.1699,1.1726,1.1728,1.1729,1.1789,1.18,1.1835,1.1774,1.1944,1.1949,1.1953,1.1992,1.2001,1.2008,0,0,0,0,0,1.1569,1.1623,1.1613,1.1624,1.1678,1.1724,1.1731,1.173,1.1705,1.1732,1.1742,1.1728,1.1825,1.1795,1.1807,1.1844,1.1942,1.1948,1.1953,1.1988,1.1999,1.2008,0,0,0,0,0,0,1.1606,1.1625,1.1615,1.1677,1.1699,1.1719,1.1753,1.1741,1.1772,1.1767,1.1765,1.1771,1.183,1.1843,1.181,1.1913,1.188,1.1888,1.1903,1.1913,1.1921,1.1917,1.1778,0,0,0,0,0,1.1621,1.1655,1.1671,1.1725,1.1736,1.1743,1.1763,1.1759,1.1782,1.1792,1.1807,1.1831,1.1867,1.1891,1.1925,1.1994,1.1999,1.2025,1.2033,1.204,1.2047,1.2084,1.2096,1.1973,1.1973,1.1973,0,0,1.1653,1.1668,1.169,1.1732,1.1749,1.1786,1.1751,1.1791,1.1819,1.1799,1.1852,1.1864,1.1892,1.1955,1.1983,1.1967,1.2082,1.2047,1.2052,1.2055,1.2091,1.2103,1.2113,1.1977,1.1976,1.1976,0,0,1.173,1.1745,1.1791,1.1808,1.1832,1.1836,1.1847,1.1869,1.1876,1.193,1.1915,1.1949,1.2011,1.2031,1.2049,1.2134,1.2122,1.2145,1.2189,1.2225,1.2235,1.2243,1.2274,1.2285,1.2152,1.2152,1.2152,0,1.1767,1.1821,1.1816,1.1857,1.1877,1.1858,1.1906,1.1923,1.1959,1.1973,1.1954,1.2031,1.2048,1.2115,1.2136,1.2151,1.2165,1.2142,1.2234,1.2242,1.225,1.2279,1.229,1.2155,1.2155,1.2154,1.2154,0,1.1865,1.1903,1.1937,1.197,1.1993,1.2037,1.2041,1.2065,1.206,1.2066,1.2122,1.2142,1.2179,1.2195,1.2191,1.2262,1.2251,1.2233,1.22,1.2264,1.2292,1.2303,1.2159,1.2158,1.2157,1.2156,0,0,1.1967,1.1996,1.2009,1.2023,1.2049,1.2079,1.2123,1.2158,1.2179,1.2205,1.2242,1.2295,1.2278,1.2299,1.2297,1.2329,1.2395,1.2307,1.2307,1.2322,1.2474,1.2488,1.25,1.2387,1.2389,1.239,1.2472,0,1.2045,1.212,1.2117,1.2187,1.2222,1.2206,1.2244,1.2265,1.2272,1.2304,1.2313,1.235,1.2325,1.2338,1.2369,1.238,1.2425,1.2374,1.2422,1.2424,1.2416,1.2515,1.2529,1.2605,1.2483,1.2484,1.2486,0,1.2147,1.2174,1.2247,1.2267,1.2282,1.2316,1.2348,1.2379,1.2403,1.2406,1.2429,1.2422,1.2468,1.2433,1.2497,1.2462,1.2482,1.2491,1.2494,1.2498,1.2459,1.2522,1.2629,1.264,1.2502,1.2501,1.25,0,1.2213,1.2268,1.2319,1.2332,1.2357,1.2382,1.2394,1.2415,1.2437,1.2465,1.2479,1.2514,1.2533,1.256,1.2563,1.2538,1.2628,1.2593,1.2633,1.2633,1.2652,1.2651,1.2764,1.2665,1.2665,1.2665,1.2665,0,1.2301,1.2347,1.2349,1.238,1.2431,1.2428,1.2479,1.2489,1.2508,1.2542,1.2531,1.2563,1.2565,1.2599,1.2602,1.2655,1.2664,1.2669,1.2669,1.2669,1.2669,1.2682,1.2677,1.2668,1.2667,1.2667,1.2666,0,1.2384,1.2387,1.2441,1.246,1.2466,1.2503,1.252,1.2551,1.2557,1.26,1.261,1.2621,1.266,1.2665,1.2712,1.2714,1.2777,1.2772,1.2768,1.2768,1.2807,1.2803,1.2933,1.295,1.284,1.2841,1.2842,0,1.2439,1.2474,1.2496,1.2517,1.253,1.2564,1.2585,1.2584,1.2607,1.2637,1.2664,1.2702,1.2732,1.2796,1.2809,1.2844,1.284,1.2883,1.2845,1.2845,1.2841,1.2838,1.2842,1.289,1.2891,1.2892,1.2893,0,1.2537,1.2537,1.2567,1.2598,1.2623,1.2648,1.2671,1.269,1.2692,1.2719,1.2757,1.2781,1.2827,1.2865,1.2901,1.2915,1.2905,1.2905,1.2916,1.2917,1.2913,1.2916,1.2788,1.2902,1.2901,1.29,1.29,1.29,1.2608,1.2638,1.2658,1.2692,1.2709,1.2731,1.276,1.277,1.2802,1.2838,1.2836,1.288,1.2904,1.2949,1.2966,1.3001,1.2987,1.3003,1.3007,1.3011,1.3015,1.2908,1.3008,1.3007,1.3007,1.3007,1.3007,0,1.2706,1.2718,1.2749,1.2781,1.2808,1.2795,1.282,1.2844,1.2881,1.2904,1.2933,1.2978,1.3015,1.303,1.3067,1.3092,1.3088,1.3102,1.31,1.3103,1.3025,1.3012,1.3104,1.3104,1.3104,1.3104,1.3104,1.3104,1.2759,1.2809,1.2811,1.2869,1.2881,1.2922,1.2938,1.2958,1.2976,1.3026,1.3056,1.3065,1.3085,1.3123,1.3157,1.316,1.3174,1.319,1.3192,1.3118,1.3109,1.3099,1.3087,1.3193,1.3193,1.3267,1.3267,1.3268]},{"header":{"parameterUnit":"m.s-1","parameterCategory":1,"la1":30.2991,"la2":30.254,"lo1":-89.0895,"lo2":-89.0444,"dy":0.0017,"dx":0.0017,"nx":28,"ny":28,"refTime":"2025-03-26T09:00:00:Z","depth":0,"parameterNumber":3,"parameterNumberName":"V-component_of_WINDS"},"data":[0,0,0,0,0,0,0,0,0,0,0,0,0,0,0,0,0,0,0,0,0,0,0,0,0,0,0,0,0,0,0,0,0,0,0,0,0,0,0,0,0,0,0,0,0,0,0,0,0,0,0,0,0,0,0,0,0,0,0.8239,0.824,0,0.8351,0.8352,0.8353,0.8374,0.8373,0.8372,0.8371,0.8487,0.8491,0.8495,0,0,0,0,0,0,0,0,0,0,0,0,0,0.8044,0.8048,0.8239,0.824,0.8242,0.8351,0.8352,0.8354,0.8374,0.8373,0.8372,0.837,0.8486,0.849,0.8495,0,0,0,0,0,0,0,0,0,0,0,0,0,0.814,0.8049,0.8239,0.8265,0.8268,0.835,0.8352,0.8354,0.8374,0.8373,0.8371,0.837,0.8484,0.849,0.8496,0.856,0,0,0.8514,0.8517,0,0,0,0,0,0,0,0,0.8134,0.8147,0.826,0.8263,0.8267,0.8347,0.8326,0.8423,0.8374,0.8334,0.8371,0.8369,0.8442,0.8451,0.8475,0.8566,0.8571,0.8515,0.8518,0.8521,0.8522,0,0,0,0,0,0,0,0.8128,0.8142,0.8283,0.8261,0.8266,0.8271,0.8283,0.8345,0.8394,0.8337,0.8339,0.8352,0.8443,0.8469,0.8478,0.8572,0.8514,0.852,0.8523,0.8526,0.8722,0.8724,0,0,0,0,0,0,0.8116,0.8136,0.828,0.8287,0.8196,0.8276,0.829,0.8323,0.8394,0.8403,0.8353,0.8352,0.846,0.8471,0.8482,0.8563,0.8521,0.8526,0.853,0.872,0.8722,0.8724,0,0,0,0,0,0,0.8112,0.8129,0.8275,0.8212,0.8231,0.8281,0.8318,0.8326,0.8351,0.8405,0.8415,0.837,0.8459,0.8474,0.8541,0.8567,0.8529,0.8534,0.8718,0.8721,0.8723,0.8724,0,0,0,0,0,0,0.8106,0.8127,0.8152,0.8212,0.8234,0.8331,0.832,0.8329,0.8361,0.8362,0.8424,0.8433,0.8459,0.8532,0.8547,0.8575,0.8539,0.8716,0.872,0.8722,0.8722,0.8726,0.873,0,0,0,0,0,0.8099,0.8148,0.8153,0.817,0.8266,0.8333,0.8346,0.8374,0.8363,0.8389,0.8424,0.8431,0.8561,0.8538,0.8555,0.8585,0.8715,0.8719,0.8722,0.872,0.8725,0.873,0,0,0,0,0,0,0.8089,0.8156,0.8163,0.8232,0.8277,0.8336,0.8369,0.8379,0.8428,0.8426,0.846,0.8474,0.8539,0.8569,0.8542,0.8652,0.8637,0.8645,0.863,0.8636,0.864,0.8632,0.8544,0,0,0,0,0,0.8095,0.8143,0.8199,0.8255,0.8277,0.8319,0.8349,0.8368,0.8415,0.8434,0.8474,0.852,0.8572,0.8605,0.8656,0.8726,0.874,0.8755,0.8759,0.8762,0.8768,0.8808,0.8816,0.8736,0.8736,0.8736,0,0,0.8108,0.815,0.8179,0.8254,0.8291,0.8341,0.8335,0.8388,0.8425,0.8443,0.8508,0.8539,0.8593,0.8662,0.8694,0.8689,0.8793,0.8767,0.8769,0.8774,0.8813,0.882,0.8827,0.8739,0.8738,0.8738,0,0,0.8157,0.8194,0.8245,0.8281,0.8336,0.8364,0.8376,0.8434,0.8455,0.8521,0.8536,0.8581,0.8668,0.8707,0.8737,0.88,0.8809,0.8816,0.8837,0.8876,0.8882,0.8888,0.8911,0.8919,0.8821,0.8822,0.8822,0,0.8166,0.8241,0.827,0.8322,0.8355,0.8372,0.8424,0.8459,0.8528,0.8551,0.8543,0.8654,0.8691,0.877,0.8785,0.8809,0.8825,0.8809,0.8879,0.8885,0.8891,0.8913,0.8922,0.8822,0.8822,0.8822,0.8822,0,0.825,0.8302,0.8336,0.8402,0.8439,0.8491,0.8528,0.8562,0.8576,0.8605,0.8672,0.8718,0.8778,0.8798,0.8813,0.8879,0.8873,0.8872,0.8858,0.8898,0.892,0.8929,0.8823,0.8823,0.8822,0.8822,0,0,0.8297,0.8377,0.839,0.842,0.8482,0.8523,0.8575,0.8634,0.8662,0.8709,0.8755,0.8829,0.8828,0.8863,0.8882,0.8916,0.8964,0.891,0.8912,0.8919,0.904,0.9041,0.9051,0.8969,0.8971,0.8972,0.9035,0,0.8354,0.8448,0.8475,0.8555,0.8604,0.8621,0.8667,0.871,0.8738,0.8783,0.8814,0.8866,0.8861,0.8882,0.8916,0.895,0.8988,0.8946,0.9013,0.9015,0.9,0.9062,0.9064,0.9121,0.9044,0.9045,0.9046,0,0.8434,0.8481,0.8566,0.8622,0.8643,0.8684,0.874,0.8783,0.8832,0.885,0.8889,0.8905,0.8962,0.8944,0.9022,0.8993,0.9022,0.9043,0.9046,0.9054,0.9034,0.9073,0.914,0.9149,0.906,0.9059,0.9058,0,0.846,0.8546,0.8608,0.8633,0.8699,0.8728,0.8757,0.8805,0.8838,0.8887,0.8909,0.8963,0.8994,0.9036,0.9067,0.9051,0.9143,0.9128,0.916,0.9159,0.918,0.9178,0.9253,0.9196,0.9196,0.9196,0.9196,0,0.8522,0.8573,0.862,0.8659,0.8717,0.8747,0.8804,0.8834,0.8876,0.8921,0.8939,0.898,0.9018,0.9065,0.9089,0.9151,0.9164,0.9181,0.9187,0.918,0.9178,0.92,0.9198,0.9198,0.9198,0.9197,0.9197,0,0.8562,0.8596,0.8664,0.8721,0.8737,0.8777,0.8826,0.8864,0.8892,0.8949,0.8964,0.9008,0.9064,0.9099,0.917,0.9186,0.9255,0.9259,0.9238,0.9241,0.9272,0.9269,0.9365,0.9379,0.9311,0.9312,0.9312,0,0.86,0.8639,0.87,0.8731,0.8761,0.881,0.8844,0.8875,0.891,0.8969,0.9,0.9057,0.9105,0.9193,0.9233,0.9287,0.9294,0.9323,0.9302,0.9294,0.9295,0.9293,0.9297,0.9327,0.9328,0.9328,0.9329,0,0.8663,0.8677,0.8725,0.8779,0.8819,0.8863,0.8907,0.8932,0.8971,0.9009,0.9066,0.9103,0.9175,0.9232,0.929,0.932,0.9332,0.9335,0.9345,0.9339,0.9326,0.9335,0.9249,0.9333,0.9332,0.9332,0.9332,0.9332,0.8704,0.874,0.8789,0.8842,0.8878,0.8918,0.8957,0.899,0.9038,0.9099,0.9114,0.9175,0.9223,0.9302,0.9334,0.9382,0.9378,0.9393,0.9397,0.9401,0.9402,0.9317,0.9393,0.9392,0.9392,0.9392,0.9392,0,0.8769,0.8801,0.8849,0.891,0.8951,0.8957,0.9006,0.9041,0.9093,0.9138,0.9184,0.925,0.9305,0.9348,0.9404,0.9434,0.9441,0.9448,0.9447,0.9454,0.9402,0.9387,0.9442,0.9442,0.9442,0.9442,0.9442,0.9442,0.8807,0.8869,0.889,0.897,0.9002,0.906,0.9088,0.9126,0.9161,0.9234,0.928,0.9307,0.9351,0.9411,0.9462,0.9473,0.9494,0.95,0.9513,0.9463,0.9458,0.9453,0.9439,0.9504,0.9504,0.9562,0.9562,0.9562]}]]